Change the Weather History Date:

Wednesday, May 8, 2013

  Actual Average Record
Temperature  
Mean Temperature 62 °F -  
Max Temperature 71 °F 74 °F 82 °F (1952)
Min Temperature 54 °F 57 °F 37 °F (1968)
Degree Days  
Heating Degree Days 2    
Growing Degree Days 12 (Base 50)    
Moisture  
Dew Point 58 °F    
Average Humidity 79    
Maximum Humidity 100    
Minimum Humidity 57    
Precipitation  
Precipitation 0.01 in - - ()
Sea Level Pressure  
Sea Level Pressure 30.01 in    
Wind  
Wind Speed 5 mph (SW)    
Max Wind Speed 15 mph    
Max Gust Speed -    
Visibility 10 miles    
Events      
Averages and records for this station are not official NWS values.
T = Trace of Precipitation, MM = Missing Value Source: NWS Daily Summary

Daily Weather History Graph

Daily Weather History Graph

Search for Another Location

Airport or City:

Trip Planner

Search our weather history database for the weather conditions in past years. The results will help you decide how hot, cold, wet, or windy it might be!

Date:

Astronomy

May. 08, 2013 Rise Set
Actual Time 6:09 AM EDT 7:57 PM EDT
Civil Twilight 5:41 AM EDT 8:25 PM EDT
Nautical Twilight 5:08 AM EDT 8:58 PM EDT
Astronomical Twilight 4:33 AM EDT 9:33 PM EDT
Moon 5:12 AM EDT (5/8) 6:55 PM EDT (5/8)
Length of Visible Light 14h 43m
Length of Day
13h 48m
Waning Crescent, 2% of the Moon is Illuminated
May 8
Waning Crescent
May 9
New
May 18
First Quarter
May 25
Full
May 31
Last Quarter

Hourly Weather History & Observations

Time (EDT) Temp. Dew Point Humidity Pressure Visibility Wind Dir Wind Speed Gust Speed Precip Events Conditions
12:58 AM 57.9 °F 55.0 °F 90% 29.99 in 10.0 mi Calm Calm - N/A   Partly Cloudy
1:58 AM 60.1 °F 57.0 °F 90% 29.96 in 10.0 mi Calm Calm - N/A   Mostly Cloudy
2:58 AM 61.0 °F 57.9 °F 90% 29.96 in 10.0 mi West 4.6 mph - N/A   Partly Cloudy
3:58 AM 61.0 °F 57.0 °F 87% 29.96 in 10.0 mi WSW 3.5 mph - N/A   Clear
4:58 AM 55.9 °F 54.0 °F 93% 29.96 in 7.0 mi Calm Calm - N/A   Clear
5:58 AM 54.0 °F 53.1 °F 97% 29.98 in 5.0 mi Calm Calm - N/A   Clear
6:58 AM 55.9 °F 55.9 °F 100% 30.00 in 7.0 mi Calm Calm - 0.01 in   Clear
7:58 AM 64.9 °F 60.1 °F 84% 30.01 in 10.0 mi SW 5.8 mph - N/A   Clear
8:58 AM 66.0 °F 59.0 °F 78% 30.03 in 10.0 mi SW 5.8 mph - N/A   Clear
9:58 AM 68.0 °F 60.1 °F 76% 30.04 in 10.0 mi West 5.8 mph - N/A   Clear
10:58 AM 68.0 °F 60.1 °F 76% 30.05 in 10.0 mi South 8.1 mph - N/A   Clear
11:58 AM 69.1 °F 60.1 °F 73% 30.04 in 10.0 mi South 5.8 mph - N/A   Partly Cloudy
12:58 PM 70.0 °F 57.0 °F 63% 30.04 in 10.0 mi South 11.5 mph - N/A   Clear
1:58 PM 70.0 °F 60.1 °F 71% 30.03 in 10.0 mi SSW 13.8 mph - N/A   Clear
2:58 PM 70.0 °F 57.0 °F 63% 30.02 in 10.0 mi South 12.7 mph - N/A   Clear
3:58 PM 71.1 °F 55.0 °F 57% 30.00 in 10.0 mi South 15.0 mph - N/A   Clear
4:58 PM 70.0 °F 54.0 °F 57% 30.00 in 10.0 mi SSW 12.7 mph - N/A   Clear
5:58 PM 69.1 °F 59.0 °F 70% 29.99 in 10.0 mi SSW 13.8 mph - N/A   Clear
6:58 PM 68.0 °F 59.0 °F 73% 29.99 in 10.0 mi SSW 11.5 mph - N/A   Clear
7:58 PM 66.0 °F 57.9 °F 75% 30.01 in 10.0 mi SSW 12.7 mph - N/A   Clear
8:58 PM 64.9 °F 60.1 °F 84% 30.01 in 10.0 mi SSW 9.2 mph - N/A   Clear
9:58 PM 66.0 °F 61.0 °F 84% 30.03 in 10.0 mi SW 9.2 mph - N/A   Clear
10:58 PM 66.0 °F 60.1 °F 81% 30.03 in 10.0 mi SW 10.4 mph - N/A   Partly Cloudy
11:58 PM 64.9 °F 61.0 °F 87% 30.02 in 10.0 mi SW 9.2 mph - N/A   Mostly Cloudy